When you browse on this site, cookies collect data to enhance your experience and personalize the content and advertising you see.
Visit our Privacy Policy to learn more. By continuing to use the site, you agree to this use of cookies and data.
  • In Lithuania
  • List of Countries
  • For 7 days
  • Water Temperature
  • Satellite Maps
  • Weather Map
  • Weather Widgets
  • user-avatar
    Login

    Hourly Weather Solden

    Today, 26 June, Wednesday

    Time Temperature Precipitation Wind Pressure Humidity
    00:00 +11°C° 0 mm 1 mps 592 mmHg 84%
    01:00 +11°C° 0 mm 1 mps 592 mmHg 80%
    02:00 +11°C° 0 mm 1 mps 591 mmHg 78%
    03:00 +11°C° 0 mm 1 mps 591 mmHg 76%
    04:00 +10°C° 0 mm 1 mps 591 mmHg 74%
    05:00 +12°C° 0 mm 1 mps 592 mmHg 69%
    06:00 +14°C° 0 mm 1 mps 593 mmHg 65%
    07:00 +18°C° 0 mm 1 mps 595 mmHg 60%
    08:00 +20°C° 0 mm 1 mps 595 mmHg 53%
    09:00 +22°C° 0 mm 1 mps 596 mmHg 45%
    10:00 +24°C° 0 mm 1 mps 597 mmHg 38%
    11:00 +24°C° 0 mm 1 mps 597 mmHg 35%
    12:00 +25°C° 0 mm 1 mps 598 mmHg 32%
    13:00 +26°C° 0 mm 2 mps 598 mmHg 29%
    14:00 +26°C° 0 mm 2 mps 598 mmHg 30%
    15:00 +26°C° 0 mm 2 mps 598 mmHg 31%
    16:00 +26°C° 0 mm 2 mps 597 mmHg 32%
    17:00 +24°C° 0.1 mm 2 mps 596 mmHg 46%
    18:00 +22°C° 0.1 mm 1 mps 596 mmHg 59%
    19:00 +20°C° 0.1 mm 1 mps 595 mmHg 73%
    20:00 +18°C° 0.1 mm 1 mps 594 mmHg 75%
    21:00 +15°C° 0.1 mm 1 mps 593 mmHg 77%
    22:00 +13°C° 0.1 mm 1 mps 593 mmHg 79%
    23:00 +13°C° 0 mm 1 mps 593 mmHg 77%

    Tomorrow, 27 June, Thursday

    Time Temperature Precipitation Wind Pressure Humidity
    00:00 +13°C° 0 mm 1 mps 592 mmHg 74%
    01:00 +12°C° 0 mm 2 mps 592 mmHg 71%
    02:00 +12°C° 0 mm 2 mps 592 mmHg 69%
    03:00 +12°C° 0 mm 2 mps 591 mmHg 66%
    04:00 +12°C° 0 mm 2 mps 591 mmHg 63%
    05:00 +14°C° 0 mm 2 mps 592 mmHg 60%
    06:00 +16°C° 0 mm 1 mps 593 mmHg 56%
    07:00 +19°C° 0 mm 1 mps 594 mmHg 53%
    08:00 +21°C° 0 mm 1 mps 595 mmHg 45%
    09:00 +23°C° 0 mm 1 mps 595 mmHg 37%
    10:00 +25°C° 0 mm 1 mps 596 mmHg 29%
    11:00 +26°C° 0 mm 1 mps 596 mmHg 27%
    12:00 +27°C° 0 mm 2 mps 596 mmHg 25%
    13:00 +27°C° 0 mm 2 mps 596 mmHg 23%
    14:00 +27°C° 0 mm 2 mps 596 mmHg 24%
    15:00 +27°C° 0 mm 3 mps 596 mmHg 25%
    16:00 +26°C° 0 mm 3 mps 595 mmHg 26%
    17:00 +24°C° 0 mm 3 mps 594 mmHg 35%
    18:00 +21°C° 0 mm 2 mps 593 mmHg 44%
    19:00 +19°C° 0 mm 2 mps 592 mmHg 53%
    20:00 +17°C° 0 mm 2 mps 591 mmHg 55%
    21:00 +16°C° 0 mm 2 mps 591 mmHg 58%
    22:00 +13°C° 0 mm 3 mps 590 mmHg 60%
    23:00 +12°C° 0 mm 3 mps 590 mmHg 63%

    Day after tomorrow, 28 June, Friday

    Time Temperature Precipitation Wind Pressure Humidity
    00:00 +12°C° 0 mm 3 mps 590 mmHg 66%
    01:00 +12°C° 0 mm 2 mps 589 mmHg 69%
    02:00 +12°C° 0 mm 2 mps 589 mmHg 70%
    03:00 +10°C° 0 mm 2 mps 589 mmHg 72%
    04:00 +10°C° 0 mm 2 mps 588 mmHg 73%
    05:00 +12°C° 0 mm 2 mps 589 mmHg 70%
    06:00 +14°C° 0 mm 2 mps 590 mmHg 67%
    07:00 +16°C° 0 mm 1 mps 590 mmHg 64%
    08:00 +18°C° 0 mm 1 mps 591 mmHg 54%
    09:00 +20°C° 0 mm 1 mps 592 mmHg 45%
    10:00 +22°C° 0 mm 1 mps 593 mmHg 36%
    11:00 +23°C° 0 mm 1 mps 593 mmHg 34%
    12:00 +24°C° 0 mm 1 mps 593 mmHg 31%
    13:00 +25°C° 0 mm 1 mps 593 mmHg 29%
    14:00 +25°C° 0 mm 2 mps 593 mmHg 31%
    15:00 +24°C° 0 mm 2 mps 593 mmHg 33%
    16:00 +24°C° 0 mm 2 mps 593 mmHg 35%
    17:00 +21°C° 0.4 mm 2 mps 592 mmHg 48%
    18:00 +20°C° 0.4 mm 1 mps 591 mmHg 62%
    19:00 +18°C° 0.4 mm 1 mps 590 mmHg 76%
    20:00 +15°C° 0.2 mm 1 mps 590 mmHg 78%
    21:00 +13°C° 0.2 mm 1 mps 589 mmHg 81%
    22:00 +10°C° 0.2 mm 2 mps 588 mmHg 83%
    23:00 +11°C° 0 mm 1 mps 588 mmHg 83%

    29 June, Saturday

    Time Temperature Precipitation Wind Pressure Humidity
    00:00 +10°C° 0 mm 1 mps 588 mmHg 84%
    01:00 +9°C° 0 mm 1 mps 587 mmHg 84%
    02:00 +9°C° 0 mm 1 mps 587 mmHg 84%
    03:00 +9°C° 0 mm 1 mps 587 mmHg 84%
    04:00 +8°C° 0 mm 1 mps 587 mmHg 84%
    05:00 +9°C° 0 mm 0 mps 588 mmHg 78%
    06:00 +11°C° 0 mm 0 mps 588 mmHg 73%
    07:00 +12°C° 0 mm 0 mps 589 mmHg 67%
    08:00 +14°C° 0 mm 0 mps 590 mmHg 63%
    09:00 +18°C° 0 mm 1 mps 591 mmHg 58%
    10:00 +19°C° 0 mm 1 mps 591 mmHg 54%
    11:00 +19°C° 0 mm 2 mps 592 mmHg 53%
    12:00 +20°C° 0 mm 2 mps 592 mmHg 51%
    13:00 +21°C° 0 mm 2 mps 592 mmHg 50%
    14:00 +21°C° 0.1 mm 2 mps 592 mmHg 52%
    15:00 +20°C° 0.1 mm 2 mps 592 mmHg 54%
    16:00 +20°C° 0.1 mm 2 mps 592 mmHg 56%
    17:00 +19°C° 0.3 mm 2 mps 591 mmHg 65%
    18:00 +18°C° 0.3 mm 2 mps 591 mmHg 74%
    19:00 +16°C° 0.3 mm 1 mps 590 mmHg 83%
    20:00 +15°C° 0 mm 1 mps 590 mmHg 87%
    21:00 +12°C° 0 mm 0 mps 589 mmHg 92%
    22:00 +10°C° 0 mm 0 mps 589 mmHg 96%
    23:00 +10°C° 0 mm 0 mps 589 mmHg 96%

    30 June, Sunday

    Time Temperature Precipitation Wind Pressure Humidity
    00:00 +10°C° 0 mm 0 mps 589 mmHg 96%
    01:00 +10°C° 0 mm 0 mps 588 mmHg 96%
    02:00 +9°C° 0 mm 0 mps 588 mmHg 96%
    03:00 +9°C° 0 mm 0 mps 588 mmHg 96%
    04:00 +9°C° 0 mm 0 mps 588 mmHg 95%
    05:00 +10°C° 0 mm 0 mps 588 mmHg 91%
    06:00 +12°C° 0 mm 0 mps 589 mmHg 86%
    07:00 +13°C° 0 mm 0 mps 590 mmHg 82%
    08:00 +15°C° 0 mm 0 mps 591 mmHg 72%
    09:00 +19°C° 0 mm 1 mps 592 mmHg 63%
    10:00 +21°C° 0 mm 1 mps 593 mmHg 53%
    11:00 +22°C° 0.1 mm 1 mps 593 mmHg 50%
    12:00 +23°C° 0.1 mm 1 mps 593 mmHg 46%
    13:00 +24°C° 0.1 mm 2 mps 594 mmHg 43%
    14:00 +24°C° 0.1 mm 2 mps 593 mmHg 43%
    15:00 +24°C° 0.1 mm 2 mps 593 mmHg 44%
    16:00 +23°C° 0.1 mm 2 mps 593 mmHg 44%
    17:00 +21°C° 0.5 mm 2 mps 593 mmHg 56%
    18:00 +20°C° 0.5 mm 1 mps 592 mmHg 67%
    19:00 +18°C° 0.5 mm 1 mps 591 mmHg 78%
    20:00 +16°C° 0.3 mm 1 mps 591 mmHg 80%
    21:00 +14°C° 0.3 mm 1 mps 590 mmHg 82%
    22:00 +12°C° 0.3 mm 1 mps 590 mmHg 84%
    23:00 +12°C° 0.1 mm 1 mps 589 mmHg 83%

    1 July, Monday

    Time Temperature Precipitation Wind Pressure Humidity
    00:00 +11°C° 0.1 mm 1 mps 589 mmHg 83%
    01:00 +10°C° 0.1 mm 1 mps 589 mmHg 82%
    02:00 +10°C° 0 mm 1 mps 588 mmHg 81%
    03:00 +10°C° 0 mm 1 mps 588 mmHg 80%
    04:00 +10°C° 0 mm 1 mps 587 mmHg 79%
    05:00 +12°C° 0 mm 1 mps 588 mmHg 73%
    06:00 +13°C° 0 mm 0 mps 589 mmHg 68%
    07:00 +15°C° 0 mm 0 mps 590 mmHg 62%
    08:00 +17°C° 0 mm 0 mps 591 mmHg 56%
    09:00 +20°C° 0 mm 1 mps 592 mmHg 50%
    10:00 +22°C° 0 mm 1 mps 593 mmHg 44%
    11:00 +23°C° 0.1 mm 1 mps 593 mmHg 43%
    12:00 +23°C° 0.1 mm 2 mps 593 mmHg 42%
    13:00 +24°C° 0.1 mm 2 mps 593 mmHg 41%
    14:00 +21°C° 0.7 mm 2 mps 592 mmHg 48%
    15:00 +20°C° 0.7 mm 2 mps 591 mmHg 55%
    16:00 +19°C° 0.7 mm 1 mps 590 mmHg 62%
    17:00 +16°C° 2.3 mm 1 mps 589 mmHg 71%
    18:00 +14°C° 2.3 mm 1 mps 589 mmHg 79%
    19:00 +12°C° 2.3 mm 1 mps 588 mmHg 88%
    20:00 +12°C° 1.4 mm 1 mps 588 mmHg 89%
    21:00 +11°C° 1.4 mm 1 mps 588 mmHg 91%
    22:00 +10°C° 1.4 mm 1 mps 588 mmHg 92%
    23:00 +10°C° 0 mm 1 mps 587 mmHg 90%
    Show more